Retour au catalogue

CZ-6A DEB

ActifPO
NORAD 61143·DEBRIS·🇨🇳 China

Lancé Aug 6, 2024 depuis Taiyuan Satellite Launch Center

Loading…

Prochains Passages (prochaines 24 heures)

TLE

FraisSource: Space-Track

Époque: Sep 14, 2026, 11:20 UTC

1 61143U 24140QM  26257.47230299  .00001333  00000-0  27302-3 0  9991
2 61143  89.1301 272.0607 0082384 298.3510  60.9410 14.58126289109552

Suivez CZ-6A DEB en temps réel avec AllMySat

Download on the App Store